Tracking 19817 objects as of 19-Aug-2019
HD Live streaming from Space Station
objects crossing your sky now

FENGYUN 1C DEB

Track FENGYUN 1C DEB now!
10-day predictions


NORAD ID: 30557
Int'l Code: 1999-025AKX
Perigee: 841.9 km
Apogee: 951.7 km
Inclination: 99.1 °
Period: 102.8 minutes
Semi major axis: 7267 km
RCS: 0.043 m2 (small)
Launch date: May 10, 1999
Source: People's Republic of China (PRC)
Launch site: Taiyaun Space Center, China (TSC)

Note: This is SATELLITE DEBRIS
aabbcc
Your satellite tracking list
Your tracking list is empty




NASA's NSSDC Master Catalog

Two Line Element Set (TLE):
1 30557U 99025AKX 19230.79997802 +.00000523 +00000-0 +36848-3 0  9993
2 30557 099.0814 285.9945 0075528 170.7737 254.0625 14.01183128639117
Source of the keplerian elements: AFSPC